This is the latest recevied weather packets stored in our database for station/object K0SDS. If no packets are shown the sender has not sent any weather packets the latest 1 day(s).
| Time | Temp. | Humidity | Pressure | Rain* | Wind** | Luminosity | Snow |
|---|---|---|---|---|---|---|---|
| 1778065058 | 7.78° C | 77% | 1015.8 hPa | 0 mm | - | 0 W/m² | - |
| 1778064453 | 7.78° C | 76% | 1016.1 hPa | 0 mm | - | 0 W/m² | - |
| 1778064150 | 8.33° C | 80% | 1016.4 hPa | 0 mm | - | 0 W/m² | - |
| 1778063242 | 8.33° C | 82% | 1016.7 hPa | 0 mm | - | 0 W/m² | - |
| 1778062940 | 7.78° C | 82% | 1016.8 hPa | 0 mm | - | 0 W/m² | - |
| 1778062333 | 7.78° C | 89% | 1017 hPa | 0 mm | - | 0 W/m² | - |
| 1778061729 | 7.78° C | 90% | 1017 hPa | 0 mm | - | 0 W/m² | - |
| 1778061124 | 7.78° C | 91% | 1016.8 hPa | 0 mm | - | 0 W/m² | - |
| 1778060821 | 7.78° C | 91% | 1016.8 hPa | 0 mm | - | 0 W/m² | - |
| 1778060519 | 7.78° C | 92% | 1016.8 hPa | 0 mm | - | 0 W/m² | - |
| 1778059914 | 7.78° C | 92% | 1016.3 hPa | 0 mm | - | 0 W/m² | - |
| 1778059309 | 7.22° C | 92% | 1015.8 hPa | 0 mm | - | 0 W/m² | - |
| 1778059007 | 7.22° C | 92% | 1015.8 hPa | 0 mm | - | 0 W/m² | - |
| 1778058704 | 7.22° C | 92% | 1015.6 hPa | 0 mm | - | 0 W/m² | - |
| 1778058402 | 7.22° C | 92% | 1015.6 hPa | 0 mm | - | 0 W/m² | - |
| 1778058098 | 7.22° C | 92% | 1015.6 hPa | 0 mm | - | 0 W/m² | - |
| 1778057795 | 7.22° C | 91% | 1015.5 hPa | 0 mm | - | 0 W/m² | - |
| 1778057188 | 7.22° C | 92% | 1015.3 hPa | 0 mm | - | 0 W/m² | - |
| 1778056885 | 7.22° C | 92% | 1015.5 hPa | 0 mm | - | 0 W/m² | - |
| 1778056582 | 7.22° C | 92% | 1015.6 hPa | 0 mm | - | 0 W/m² | - |
| 1778055976 | 7.22° C | 93% | 1015.7 hPa | 0 mm | - | 0 W/m² | - |
| 1778055370 | 7.22° C | 92% | 1015.6 hPa | 0 mm | - | 0 W/m² | - |
| 1778054765 | 7.22° C | 92% | 1015.5 hPa | 0 mm | - | 0 W/m² | - |
| 1778054159 | 7.22° C | 92% | 1015.3 hPa | 0 mm | - | 0 W/m² | - |
| 1778053250 | 7.22° C | 91% | 1015 hPa | 0 mm | - | 0 W/m² | - |
* Rain latest hour (hover to see other rain measurements)
** Current wind speed in m/s (hover to see current wind gust speed)